Weather History for Hobbs, NM

Change the Weather History Date:

Thursday, January 9, 2014

  Actual Average Record
Temperature  
Mean Temperature 38 °F -  
Max Temperature 57 °F 55 °F 77 °F (2002)
Min Temperature 19 °F 29 °F 19 °F (1999)
Degree Days  
Heating Degree Days 27    
Moisture  
Dew Point 23 °F    
Average Humidity 60    
Maximum Humidity 93    
Minimum Humidity 29    
Precipitation  
Precipitation 0.00 in - - ()
Sea Level Pressure  
Sea Level Pressure 30.01 in    
Wind  
Wind Speed 5 mph (South)    
Max Wind Speed 15 mph    
Max Gust Speed -    
Visibility 10 miles    
Events      
Averages and records for this station are not official NWS values.
T = Trace of Precipitation, MM = Missing Value Source: NWS Daily Summary

Daily Weather History Graph

Daily Weather History Graph

Search for Another Location

Airport:

Trip Planner

Search our weather history database for the weather conditions in past years. The results will help you decide how hot, cold, wet, or windy it might be!

Date:

Astronomy

Jan. 09, 2014 Rise Set
Actual Time 6:55 AM MST 5:04 PM MST
Civil Twilight 6:28 AM MST 5:31 PM MST
Nautical Twilight 5:58 AM MST 6:01 PM MST
Astronomical Twilight 5:28 AM MST 6:31 PM MST
Moon 12:26 PM MST (1/9) 1:13 AM MST (1/9)
Length of Visible Light 11h 02m
Length of Day
10h 08m
Waxing Gibbous, 66% of the Moon is Illuminated
Jan 9
Waxing Gibbous
Jan 15
Full
Jan 23
Last Quarter
Jan 30
New
Feb 6
First Quarter

Hourly Weather History & Observations

Time (MST) Temp. Windchill Dew Point Humidity Pressure Visibility Wind Dir Wind Speed Gust Speed Precip Events Conditions
12:15 AM 26.6 °F - 19.4 °F 74% 30.12 in 10.0 mi Calm Calm - N/A   Clear
12:35 AM 26.6 °F - 19.4 °F 74% 30.11 in 10.0 mi Calm Calm - N/A   Clear
12:55 AM 24.8 °F - 17.6 °F 74% 30.12 in 10.0 mi Calm Calm - N/A   Clear
1:15 AM 23.0 °F - 17.6 °F 80% 30.11 in 10.0 mi Calm Calm - N/A   Clear
1:35 AM 23.0 °F - 17.6 °F 80% 30.11 in 10.0 mi Calm Calm - N/A   Clear
1:55 AM 23.0 °F - 17.6 °F 80% 30.12 in 10.0 mi Calm Calm - N/A   Clear
2:15 AM 21.2 °F 11.7 °F 17.6 °F 86% 30.11 in 10.0 mi NW 8.1 mph - N/A   Clear
2:35 AM 23.0 °F 12.4 °F 17.6 °F 80% 30.11 in 10.0 mi NW 10.4 mph - N/A   Clear
2:55 AM 23.0 °F 13.1 °F 17.6 °F 80% 30.12 in 8.0 mi NW 9.2 mph - N/A   Clear
3:15 AM 23.0 °F 13.9 °F 19.4 °F 86% 30.12 in 10.0 mi NW 8.1 mph - N/A   Clear
3:35 AM 23.0 °F - 17.6 °F 80% 30.12 in 7.0 mi Calm Calm - N/A   Clear
3:55 AM 19.4 °F - 17.6 °F 93% 30.12 in 9.0 mi Calm Calm - N/A   Clear
5:50 AM 21.2 °F 11.7 °F 17.6 °F 86% 30.11 in 10.0 mi NW 8.1 mph - N/A   Clear
6:50 AM 19.4 °F 10.4 °F 17.6 °F 93% 30.12 in 8.0 mi WNW 6.9 mph - N/A   Clear
7:50 AM 24.8 °F 19.1 °F 19.4 °F 80% 30.12 in 8.0 mi NNW 4.6 mph - N/A   Clear
8:50 AM 32.0 °F 28.7 °F 23.0 °F 69% 30.13 in 10.0 mi North 3.5 mph - N/A   Clear
9:50 AM 39.2 °F 34.2 °F 24.8 °F 56% 30.13 in 10.0 mi South 6.9 mph - N/A   Clear
10:50 AM 44.6 °F 40.2 °F 24.8 °F 46% 30.10 in 10.0 mi South 8.1 mph - N/A   Clear
11:50 AM 46.4 °F 41.9 °F 24.8 °F 43% 30.05 in 10.0 mi South 9.2 mph - N/A   Clear
12:50 PM 50.0 °F - 24.8 °F 37% 30.00 in 10.0 mi South 9.2 mph - N/A   Clear
1:50 PM 53.6 °F - 24.8 °F 33% 29.98 in 10.0 mi SSW 11.5 mph - N/A   Clear
2:50 PM 57.2 °F - 24.8 °F 29% 29.95 in 10.0 mi South 11.5 mph - N/A   Clear
4:50 PM 50.0 °F - 23.0 °F 35% 29.94 in 10.0 mi South 11.5 mph - N/A   Clear
5:15 PM 48.2 °F - 23.0 °F 37% 29.94 in 10.0 mi SSE 9.2 mph - N/A   Clear
5:35 PM 46.4 °F 41.9 °F 24.8 °F 43% 29.94 in 10.0 mi SSE 9.2 mph - N/A   Clear
5:50 PM 46.4 °F 42.4 °F 24.8 °F 43% 29.94 in 10.0 mi South 8.1 mph - N/A   Clear
5:55 PM 46.4 °F 43.5 °F 24.8 °F 43% 29.94 in 10.0 mi SSE 5.8 mph - N/A   Clear
6:15 PM 44.6 °F - 24.8 °F 46% 29.94 in 10.0 mi Calm Calm - N/A   Clear
6:35 PM 44.6 °F - 24.8 °F 46% 29.94 in 10.0 mi Calm Calm - N/A   Clear
6:55 PM 42.8 °F 37.0 °F 24.8 °F 49% 29.94 in 10.0 mi SSE 10.4 mph - N/A   Clear
7:15 PM 42.8 °F 37.5 °F 24.8 °F 49% 29.94 in 10.0 mi South 9.2 mph - N/A   Clear
7:35 PM 41.0 °F 35.2 °F 24.8 °F 53% 29.94 in 10.0 mi SSE 9.2 mph - N/A   Clear
7:55 PM 41.0 °F 35.8 °F 24.8 °F 53% 29.94 in 10.0 mi SSE 8.1 mph - N/A   Clear
8:15 PM 41.0 °F 35.8 °F 26.6 °F 57% 29.94 in 10.0 mi South 8.1 mph - N/A   Clear
8:35 PM 41.0 °F - 26.6 °F 57% 29.94 in 10.0 mi Calm Calm - N/A   Clear
8:55 PM 41.0 °F 37.1 °F 26.6 °F 57% 29.93 in 10.0 mi SSE 5.8 mph - N/A   Clear
9:15 PM 39.2 °F 33.6 °F 26.6 °F 61% 29.93 in 10.0 mi South 8.1 mph - N/A   Clear
9:35 PM 41.0 °F 35.8 °F 26.6 °F 57% 29.93 in 10.0 mi South 8.1 mph - N/A   Clear
9:55 PM 42.8 °F 37.5 °F 28.4 °F 57% 29.94 in 10.0 mi South 9.2 mph - N/A   Clear
10:15 PM 44.6 °F 38.4 °F 28.4 °F 53% 29.93 in 10.0 mi South 12.7 mph - N/A   Clear
10:35 PM 44.6 °F 38.4 °F 28.4 °F 53% 29.93 in 10.0 mi SSE 12.7 mph - N/A   Clear
10:55 PM 44.6 °F 38.4 °F 28.4 °F 53% 29.92 in 10.0 mi SSE 12.7 mph - N/A   Clear
11:15 PM 44.6 °F 37.8 °F 30.2 °F 57% 29.92 in 10.0 mi South 15.0 mph - N/A   Clear
11:35 PM 44.6 °F 38.4 °F 32.0 °F 61% 29.91 in 10.0 mi SSE 12.7 mph - N/A   Clear
11:55 PM 46.4 °F 40.7 °F 32.0 °F 57% 29.91 in 10.0 mi SSE 12.7 mph - N/A   Clear